EW0199 Weather Reports


Display with metric or nautical units.
time (UTC)temp
F
wind
direction
speed
MPH
gust
MPH
rain 1hr
in
rain 24hr
in
rain mn
in
humidity
%
barometer
mb
20260502180358 55 295 3.0 8.0 0.00 0.00 0.00 32 1013.9
20260502170403 53 46 4.0 12.0 0.00 0.00 0.00 36 1014.6
20260502163858 51 352 5.0 11.0 0.00 0.00 0.00 36 1015.0
20260502163416 52 277 0.0 8.0 0.00 0.00 0.00 35 1015.1
20260502162836 53 219 4.0 11.0 0.00 0.00 0.00 35 1015.1
20260502162345 52 264 4.0 11.0 0.00 0.00 0.00 36 1015.2
20260502161410 52 357 4.0 10.0 0.00 0.00 0.00 37 1015.3
20260502160828 52 320 2.0 12.0 0.00 0.00 0.00 35 1015.3
20260502160355 52 305 3.0 12.0 0.00 0.00 0.00 35 1015.5
20260502151842 50 153 1.0 5.0 0.00 0.00 0.00 44 1015.8
20260502150843 49 213 1.0 6.0 0.00 0.00 0.00 44 1015.9
20260502123412 27 25 0.0 0.0 0.00 0.00 0.00 96 1017.4
20260502122921 27 25 0.0 0.0 0.00 0.00 0.00 96 1017.4
20260502122346 26 23 0.0 0.0 0.00 0.00 0.00 96 1017.4
20260502121911 25 25 0.0 0.0 0.00 0.00 0.00 96 1017.3
20260502121407 25 26 0.0 0.0 0.00 0.00 0.00 96 1017.4
20260502120829 24 25 0.0 0.0 0.00 0.00 0.00 96 1017.3
20260502120359 24 26 0.0 0.0 0.00 0.00 0.00 96 1017.3
20260502115918 24 25 0.0 0.0 0.00 0.00 0.00 96 1017.3
20260502115339 23 25 0.0 0.0 0.00 0.00 0.00 96 1017.4
20260502114909 23 25 0.0 0.0 0.00 0.00 0.00 96 1017.3
20260502114436 22 25 0.0 0.0 0.00 0.00 0.00 95 1017.3
20260502113941 22 25 0.0 0.0 0.00 0.00 0.00 95 1017.3
20260502113340 22 25 0.0 0.0 0.00 0.00 0.00 95 1017.3
20260502112904 21 25 0.0 0.0 0.00 0.00 0.00 95 1017.3
20260502112419 21 25 0.0 0.0 0.00 0.00 0.00 95 1017.3
20260502111921 21 25 0.0 0.0 0.00 0.00 0.00 95 1017.3
20260502111410 21 25 0.0 0.0 0.00 0.00 0.00 95 1017.3
20260502110935 21 25 0.0 0.0 0.00 0.00 0.00 95 1017.3
20260502110419 21 25 0.0 0.0 0.00 0.00 0.00 95 1017.3
20260502105840 21 25 0.0 0.0 0.00 0.00 0.00 95 1017.3
20260502105404 21 25 0.0 0.0 0.00 0.00 0.00 95 1017.2
20260502104902 20 25 0.0 0.0 0.00 0.00 0.00 95 1017.2
20260502104325 20 26 0.0 0.0 0.00 0.00 0.00 95 1017.3
20260502103848 20 25 0.0 0.0 0.00 0.00 0.00 95 1017.3
20260502103415 20 25 0.0 0.0 0.00 0.00 0.00 95 1017.3
20260502102831 20 25 0.0 0.0 0.00 0.00 0.00 95 1017.2
20260502102352 20 25 0.0 0.0 0.00 0.00 0.00 95 1017.2
20260502101854 20 26 0.0 0.0 0.00 0.00 0.00 95 1017.2
20260502101405 20 25 0.0 0.0 0.00 0.00 0.00 95 1017.2
20260502100911 20 25 0.0 0.0 0.00 0.00 0.00 95 1017.1
20260502100418 21 25 0.0 0.0 0.00 0.00 0.00 95 1017.1
20260502091359 21 25 0.0 0.0 0.00 0.00 0.00 95 1017.0
20260502090922 21 25 0.0 0.0 0.00 0.00 0.00 95 1017.0
20260502090410 21 25 0.0 0.0 0.00 0.00 0.00 95 1017.0
20260502071409 23 25 0.0 0.0 0.00 0.00 0.00 94 1017.0
20260502070827 23 25 0.0 0.0 0.00 0.00 0.00 95 1017.0
20260502070355 23 25 0.0 0.0 0.00 0.00 0.00 95 1017.0
20260502065848 23 25 0.0 0.0 0.00 0.00 0.00 94 1017.0
20260502065334 23 25 0.0 0.0 0.00 0.00 0.00 94 1017.1
20260502064840 23 25 0.0 0.0 0.00 0.00 0.00 94 1017.1
20260502064325 23 25 0.0 0.0 0.00 0.00 0.00 94 1017.1
20260502063830 23 25 0.0 0.0 0.00 0.00 0.00 94 1017.1
20260502063337 23 26 0.0 0.0 0.00 0.00 0.00 94 1017.1
20260502062827 23 25 0.0 0.0 0.00 0.00 0.00 94 1017.1
20260502062334 23 25 0.0 0.0 0.00 0.00 0.00 94 1017.1
20260502061840 23 25 0.0 0.0 0.00 0.00 0.00 94 1017.1
20260502061324 23 25 0.0 0.0 0.00 0.00 0.00 94 1017.2
20260502060830 23 25 0.0 0.0 0.00 0.00 0.00 94 1017.2
20260502060356 23 25 0.0 0.0 0.00 0.00 0.00 94 1017.2
20260502055841 24 25 0.0 0.0 0.00 0.00 0.00 94 1017.1
20260502055326 24 25 0.0 0.0 0.00 0.00 0.00 94 1017.1
20260502054833 24 26 0.0 0.0 0.00 0.00 0.00 94 1017.1
20260502054339 24 25 0.0 0.0 0.00 0.00 0.00 94 1017.1
20260502053823 24 25 0.0 0.0 0.00 0.00 0.00 94 1017.0
20260502053329 24 26 0.0 0.0 0.00 0.00 0.00 94 1017.1
20260502052840 24 25 0.0 0.0 0.00 0.00 0.00 94 1017.1
20260502052324 24 25 0.0 0.0 0.00 0.00 0.00 94 1017.1
20260502051830 24 25 0.0 0.0 0.00 0.00 0.00 94 1017.1
20260502051337 24 25 0.0 0.0 0.00 0.00 0.00 94 1017.0
20260502050843 24 25 0.0 0.0 0.00 0.00 0.00 94 1017.0
20260502050329 24 26 0.0 0.0 0.00 0.00 0.00 93 1017.0
20260502045848 25 25 0.0 0.0 0.00 0.00 0.00 93 1017.0
20260502045411 25 25 0.0 0.0 0.00 0.00 0.00 93 1017.0
20260502044920 25 25 0.0 0.0 0.00 0.00 0.00 93 1017.0
20260502044338 25 25 0.0 0.0 0.00 0.00 0.00 93 1017.0
20260502043903 25 25 0.0 0.0 0.00 0.00 0.00 92 1017.0
20260502043327 25 25 0.0 0.0 0.00 0.00 0.00 92 1016.9
20260502042853 25 25 0.0 0.0 0.00 0.00 0.00 92 1017.0
20260502042421 25 25 0.0 0.0 0.00 0.00 0.00 92 1017.0
20260502041845 25 25 0.0 0.0 0.00 0.00 0.00 91 1017.0
20260502041355 25 25 0.0 0.0 0.00 0.00 0.00 92 1017.1
20260502040843 25 25 0.0 0.0 0.00 0.00 0.00 91 1017.1
20260502035847 26 25 0.0 0.0 0.00 0.00 0.00 90 1017.0
20260502035411 26 25 0.0 0.0 0.00 0.00 0.00 90 1017.0
20260502034940 26 25 0.0 0.0 0.00 0.00 0.00 90 1017.0
20260502034337 26 25 0.0 0.0 0.00 0.00 0.00 90 1017.0
20260502033900 26 25 0.0 0.0 0.00 0.00 0.00 90 1017.1
20260502033423 26 25 0.0 0.0 0.00 0.00 0.00 90 1017.0
20260502032841 26 25 0.0 0.0 0.00 0.00 0.00 89 1017.0
20260502031844 27 25 0.0 0.0 0.00 0.00 0.00 89 1017.1
20260502031353 27 24 0.0 0.0 0.00 0.00 0.00 88 1017.1
20260502030903 27 25 0.0 0.0 0.00 0.00 0.00 88 1017.1
20260502030413 27 26 0.0 0.0 0.00 0.00 0.00 88 1017.1
20260502025827 27 25 0.0 0.0 0.00 0.00 0.00 87 1017.0
20260502025335 28 25 0.0 0.0 0.00 0.00 0.00 87 1017.1
20260502024858 28 25 0.0 0.0 0.00 0.00 0.00 86 1017.0
20260502024359 28 25 0.0 0.0 0.00 0.00 0.00 84 1017.0
20260502023900 28 25 0.0 0.0 0.00 0.00 0.00 83 1017.0
20260502023432 29 25 0.0 0.0 0.00 0.00 0.00 83 1017.0
20260502022833 29 25 0.0 0.0 0.00 0.00 0.00 83 1017.0
20260502022342 29 24 0.0 0.0 0.00 0.00 0.00 83 1016.9
20260502021906 30 24 0.0 0.0 0.00 0.00 0.00 82 1017.0
20260502021330 30 24 0.0 0.0 0.00 0.00 0.00 81 1017.0
20260502020855 30 24 0.0 0.0 0.00 0.00 0.00 81 1016.9
20260502020417 31 24 0.0 0.0 0.00 0.00 0.00 81 1016.9
20260502015837 31 24 0.0 0.0 0.00 0.00 0.00 81 1016.9
20260502015401 31 24 0.0 0.0 0.00 0.00 0.00 80 1016.9
20260502014910 32 24 0.0 0.0 0.00 0.00 0.00 79 1016.8
20260502014334 33 24 0.0 0.0 0.00 0.00 0.00 76 1016.7
20260502013857 33 24 0.0 0.0 0.00 0.00 0.00 75 1016.8
20260502013358 33 24 0.0 1.0 0.00 0.00 0.00 74 1016.7
20260502012921 33 24 0.0 1.0 0.00 0.00 0.00 74 1016.7
20260502012345 34 24 0.0 0.0 0.00 0.00 0.00 70 1016.7
20260502011908 34 24 0.0 0.0 0.00 0.00 0.00 70 1016.7
20260502011411 35 24 0.0 0.0 0.00 0.00 0.00 69 1016.7
20260502010839 35 24 0.0 0.0 0.00 0.00 0.00 67 1016.6
20260502010405 36 24 0.0 0.0 0.00 0.00 0.00 65 1016.6
20260502005926 37 24 0.0 0.0 0.00 0.00 0.00 65 1016.6
20260502005324 38 24 0.0 0.0 0.00 0.00 0.00 62 1016.6
20260502004847 38 24 0.0 0.0 0.00 0.00 0.00 59 1016.6
20260502004350 39 24 0.0 0.0 0.00 0.00 0.00 59 1016.5
20260502003919 40 24 0.0 0.0 0.00 0.00 0.00 57 1016.5
20260502003340 40 24 0.0 2.0 0.00 0.00 0.00 56 1016.5
20260502002909 41 24 0.0 2.0 0.00 0.00 0.00 52 1016.4
20260502002327 41 345 0.0 1.0 0.00 0.00 0.00 51 1016.5
20260502001856 41 345 0.0 2.0 0.00 0.00 0.00 51 1016.4
20260502001420 42 317 0.0 2.0 0.00 0.00 0.00 50 1016.4
20260502000844 42 330 1.0 2.0 0.00 0.00 0.00 47 1016.4
20260502000409 43 288 0.0 1.0 0.00 0.00 0.00 45 1016.4
20260501235936 43 307 0.0 3.0 0.00 0.00 0.00 47 1016.4
20260501235332 43 265 0.0 3.0 0.00 0.00 0.00 46 1016.4
20260501234859 43 300 0.0 3.0 0.00 0.00 0.00 47 1016.4
20260501234419 43 6 1.0 3.0 0.00 0.00 0.00 48 1016.4
20260501233839 42 335 1.0 2.0 0.00 0.00 0.00 49 1016.4
20260501233404 42 37 0.0 3.0 0.00 0.00 0.00 48 1016.5
20260501232829 42 292 2.0 4.0 0.00 0.00 0.00 47 1016.4
20260501232352 42 294 2.0 7.0 0.00 0.00 0.00 48 1016.5
20260501231859 43 33 2.0 7.0 0.00 0.00 0.00 48 1016.5
20260501231345 43 357 2.0 4.0 0.00 0.00 0.00 46 1016.4
20260501230849 43 21 3.0 5.0 0.00 0.00 0.00 46 1016.5
20260501230417 43 328 1.0 5.0 0.00 0.00 0.00 47 1016.4
20260501225921 43 281 1.0 5.0 0.00 0.00 0.00 47 1016.4
20260501225343 43 325 2.0 5.0 0.00 0.00 0.00 47 1016.5
20260501224912 42 20 0.0 4.0 0.00 0.00 0.00 49 1016.5
20260501224418 42 38 0.0 4.0 0.00 0.00 0.00 50 1016.5
20260501223838 42 334 1.0 5.0 0.00 0.00 0.00 48 1016.5
20260501222840 42 17 0.0 5.0 0.00 0.00 0.00 50 1016.6
20260501222407 42 321 2.0 5.0 0.00 0.00 0.00 50 1016.6
20260501221933 41 14 1.0 4.0 0.00 0.00 0.00 50 1016.6
20260501221329 41 340 1.0 5.0 0.00 0.00 0.00 50 1016.6
20260501220858 41 321 2.0 8.0 0.00 0.00 0.00 51 1016.5
20260501220421 41 357 2.0 8.0 0.00 0.00 0.00 51 1016.4
20260501215922 41 328 4.0 8.0 0.00 0.00 0.00 50 1016.5
20260501215325 42 18 4.0 8.0 0.00 0.00 0.00 51 1016.4
20260501214847 42 330 0.0 5.0 0.00 0.00 0.00 50 1016.3
20260501214418 42 330 1.0 6.0 0.00 0.00 0.00 50 1016.2
20260501213837 42 316 2.0 5.0 0.00 0.00 0.00 49 1016.2
20260501213400 42 346 1.0 4.0 0.00 0.00 0.00 48 1016.1
20260501212823 43 6 2.0 8.0 0.00 0.00 0.00 49 1016.2
20260501212352 42 324 3.0 8.0 0.00 0.00 0.00 49 1016.1
20260501211919 43 66 2.0 5.0 0.00 0.00 0.00 49 1016.1
20260501211422 43 38 2.0 4.0 0.00 0.00 0.00 50 1016.1
20260501210828 42 77 1.0 6.0 0.00 0.00 0.00 52 1016.0
20260501210333 42 323 3.0 9.0 0.00 0.00 0.00 50 1016.0
20260501205855 42 321 3.0 10.0 0.00 0.00 0.00 51 1016.0
20260501205359 42 314 2.0 10.0 0.00 0.00 0.00 51 1015.9
20260501204901 42 326 2.0 7.0 0.00 0.00 0.00 50 1016.0
20260501204329 42 293 1.0 9.0 0.00 0.00 0.00 50 1016.0
20260501203856 42 33 4.0 9.0 0.00 0.00 0.00 48 1016.0
20260501203419 42 328 3.0 9.0 0.00 0.00 0.00 49 1016.0
20260501202825 42 24 4.0 8.0 0.00 0.00 0.00 51 1016.0
20260501202346 42 321 2.0 7.0 0.00 0.00 0.00 52 1016.0
20260501201344 42 331 3.0 7.0 0.00 0.00 0.00 55 1016.0
20260501200341 42 111 0.0 3.0 0.00 0.00 0.00 61 1015.9
20260501195901 42 171 0.0 3.0 0.00 0.00 0.00 53 1015.8
20260501195324 42 283 0.0 3.0 0.00 0.00 0.00 62 1015.9
20260501194844 41 20 0.0 3.0 0.00 0.00 0.00 61 1015.8
20260501194404 41 290 0.0 4.0 0.00 0.00 0.00 62 1015.9
20260501193830 41 313 2.0 4.0 0.00 0.00 0.00 64 1015.9
20260501193352 40 290 0.0 2.0 0.00 0.00 0.00 64 1016.0
20260501192825 40 290 1.0 5.0 0.00 0.00 0.00 64 1015.9
20260501192349 40 325 1.0 5.0 0.00 0.00 0.00 65 1016.0
20260501191855 40 357 1.0 5.0 0.00 0.00 0.00 64 1016.0
20260501191421 40 331 2.0 6.0 0.00 0.00 0.00 62 1015.9
20260501190837 41 325 2.0 7.0 0.00 0.00 0.00 59 1015.9
20260501190400 41 284 2.0 7.0 0.00 0.00 0.00 60 1015.8
20260501185901 41 306 3.0 6.0 0.00 0.00 0.00 60 1015.8
20260501185324 42 331 3.0 6.0 0.00 0.00 0.00 58 1015.8
20260501184849 42 56 1.0 7.0 0.00 0.00 0.00 58 1015.8
20260501184357 42 13 3.0 7.0 0.00 0.00 0.00 57 1015.9
20260501183920 42 11 1.0 5.0 0.00 0.00 0.00 58 1015.8
20260501183337 41 38 1.0 5.0 0.00 0.00 0.00 58 1015.8
20260501182903 41 88 2.0 5.0 0.00 0.00 0.00 59 1015.7
20260501181844 41 41 3.0 8.0 0.00 0.00 0.00 60 1015.8
20260501180844 41 56 2.0 8.0 0.00 0.00 0.00 61 1015.9